Date,TemperatureHighF,TemperatureAvgF,TemperatureLowF,DewpointHighF,DewpointAvgF,DewpointLowF,HumidityHigh,HumidityAvg,HumidityLow,PressureMaxIn,PressureMinIn,WindSpeedMaxMPH,WindSpeedAvgMPH,GustSpeedMaxMPH,PrecipitationSumIn
2012-12-1,74.3,71.2,68.8,66.9,65.1,62.9,91,81,74,30.20,30.12,17,5,22,0.10
2012-12-2,75.5,71.3,66.3,69.8,66.3,64.5,97,85,75,30.23,30.16,14,4,16,0.07
2012-12-3,75.5,73.4,72.0,66.8,63.9,60.4,82,72,65,30.25,30.16,13,5,15,0.00
2012-12-4,74.8,72.7,70.4,67.1,62.5,57.2,85,71,61,30.24,30.14,14,5,14,0.00
2012-12-5,77.0,72.1,66.7,68.4,64.5,59.8,91,78,62,30.14,30.01,9,2,10,0.00
2012-12-6,74.9,70.4,66.2,70.4,66.9,62.4,96,89,78,30.01,29.90,11,2,13,0.31
2012-12-7,76.7,71.0,64.1,72.1,68.2,62.9,97,91,80,29.99,29.88,13,2,14,0.01
2012-12-8,75.5,72.4,67.8,72.8,69.9,65.9,97,92,86,30.05,29.94,10,2,13,1.17
2012-12-9,77.1,73.2,68.5,74.0,71.2,67.3,98,94,89,30.07,29.98,10,1,12,0.18
2012-12-10,81.2,74.6,70.6,77.8,73.0,69.2,98,95,87,29.99,29.84,11,2,11,0.54
2012-12-11,78.8,74.8,72.5,75.9,73.2,70.8,97,95,90,30.01,29.87,8,1,11,0.01
2012-12-12,80.8,74.9,70.2,76.0,72.2,69.2,98,92,80,30.07,29.98,7,1,10,0.10
2012-12-13,73.4,68.9,65.8,72.0,66.6,62.8,97,92,88,30.10,29.99,17,4,20,0.03
2012-12-14,74.3,69.3,62.6,67.8,65.0,61.1,97,87,73,30.14,30.05,17,5,19,0.08
2012-12-15,76.3,69.1,62.4,69.5,65.5,61.7,99,89,74,30.11,30.03,12,2,13,0.01
2012-12-16,76.8,72.7,67.7,71.3,68.7,64.7,94,88,82,30.04,29.94,11,3,12,0.00
2012-12-17,80.2,73.2,67.7,71.1,68.2,65.9,96,85,68,29.96,29.85,8,1,11,0.00
2012-12-18,81.7,71.7,63.9,73.2,66.7,56.8,98,85,69,29.99,29.86,12,2,12,0.01
2012-12-19,77.8,68.8,56.6,67.2,60.6,52.9,94,76,60,30.08,29.98,9,2,11,0.00
2012-12-20,78.6,73.4,68.7,70.0,66.2,61.9,88,79,64,30.09,29.93,12,3,12,0.00
2012-12-21,71.1,59.9,46.1,68.3,45.2,27.9,93,62,27,30.15,29.89,18,3,19,0.01
2012-12-22,63.9,51.1,40.9,37.7,29.2,21.3,74,45,21,30.23,30.14,14,3,16,0.00
2012-12-23,67.2,57.0,44.9,58.7,46.7,32.0,87,69,53,30.24,30.13,7,2,8,0.00
2012-12-24,72.6,64.9,57.5,62.6,58.4,52.6,89,80,69,30.13,29.96,8,1,9,0.00
2012-12-25,73.4,66.5,58.2,66.1,61.7,56.3,94,85,75,30.03,29.89,6,1,6,0.00
2012-12-26,81.3,69.6,57.1,71.3,64.4,52.9,93,84,65,29.96,29.75,24,3,24,0.06
2012-12-27,60.0,54.0,45.8,53.2,48.3,42.4,91,82,69,30.06,29.95,12,2,12,0.00
2012-12-28,74.0,64.1,49.7,69.5,59.1,44.9,95,84,69,30.08,29.95,10,3,10,0.10
2012-12-29,81.3,71.5,54.7,74.8,67.4,48.8,97,88,74,30.09,29.86,15,3,19,0.01
2012-12-30,65.2,55.9,43.9,57.7,50.0,38.8,87,81,73,30.29,30.09,19,6,21,0.00
2012-12-31,72.0,67.6,63.0,61.7,59.1,55.6,84,74,68,30.32,30.19,13,5,15,0.00